Weather History for Keahole Point, HI

Change the Weather History Date:

Tuesday, December 25, 2012

  Actual Average Record
Temperature  
Mean Temperature 77 °F -  
Max Temperature 81 °F 79 °F 86 °F (1986)
Min Temperature 73 °F 68 °F 62 °F (1984)
Cooling Degree Days 12    
Growing Degree Days 27 (Base 50)    
Moisture  
Dew Point 66 °F    
Average Humidity 70    
Maximum Humidity 82    
Minimum Humidity 60    
Precipitation  
Precipitation 0.01 in - - ()
Sea Level Pressure  
Sea Level Pressure 29.99 in    
Wind  
Wind Speed 7 mph (SE)    
Max Wind Speed 16 mph    
Max Gust Speed -    
Visibility 10 miles    
Events Rain    
Averages and records for this station are not official NWS values.
T = Trace of Precipitation, MM = Missing Value Source: NWS Daily Summary

Daily Weather History Graph

Daily Weather History Graph

Search for Another Location

Airport:

Trip Planner

Search our weather history database for the weather conditions in past years. The results will help you decide how hot, cold, wet, or windy it might be!

Date:

Astronomy

Dec. 25, 2012 Rise Set
Actual Time 6:56 AM HST 5:53 PM HST
Civil Twilight 6:32 AM HST 6:17 PM HST
Nautical Twilight 6:04 AM HST 6:44 PM HST
Astronomical Twilight 5:37 AM HST 7:11 PM HST
Moon 4:04 PM HST (12/25) 4:43 AM HST (12/25)
Length of Visible Light 11h 44m
Length of Day
10h 56m
Waxing Gibbous, 94% of the Moon is Illuminated
Dec 25
Waxing Gibbous
Dec 28
Full
Jan 4
Last Quarter
Jan 11
New
Jan 18
First Quarter

Hourly Weather History & Observations

Time (HST) Temp. Heat Index Dew Point Humidity Pressure Visibility Wind Dir Wind Speed Gust Speed Precip Events Conditions
12:53 AM 73.0 °F - 63.0 °F 71% 30.01 in 10.0 mi SE 6.9 mph - N/A   Clear
1:53 AM 73.9 °F - 64.0 °F 71% 30.01 in 10.0 mi ENE 6.9 mph - N/A   Mostly Cloudy
2:53 AM 73.9 °F - 64.0 °F 71% 29.99 in 10.0 mi ENE 5.8 mph - N/A   Overcast
3:53 AM 73.0 °F - 60.1 °F 64% 29.98 in 10.0 mi North 6.9 mph - N/A   Partly Cloudy
4:53 AM 73.0 °F - 61.0 °F 66% 29.97 in 10.0 mi North 10.4 mph - N/A   Partly Cloudy
5:53 AM 73.9 °F - 62.1 °F 66% 29.99 in 10.0 mi NE 9.2 mph - N/A   Scattered Clouds
6:31 AM 75.2 °F - 62.6 °F 65% 29.99 in 10.0 mi NNE 9.2 mph - N/A   Mostly Cloudy
6:53 AM 75.0 °F - 61.0 °F 62% 30.00 in 10.0 mi NNE 6.9 mph - N/A   Scattered Clouds
7:53 AM 75.0 °F - 64.0 °F 69% 30.01 in 10.0 mi North 5.8 mph - N/A   Scattered Clouds
8:53 AM 78.1 °F - 64.9 °F 64% 30.02 in 10.0 mi Calm Calm - N/A   Scattered Clouds
9:53 AM 79.0 °F - 64.9 °F 62% 30.02 in 10.0 mi Variable 6.9 mph - N/A   Clear
10:53 AM 80.1 °F 82.3 °F 66.9 °F 64% 30.01 in 10.0 mi South 12.7 mph - N/A   Clear
11:53 AM 81.0 °F 83.3 °F 66.9 °F 62% 30.01 in 10.0 mi South 16.1 mph - N/A   Clear
12:53 PM 81.0 °F 83.3 °F 66.9 °F 62% 29.97 in 10.0 mi South 15.0 mph - N/A   Clear
1:53 PM 81.0 °F 83.0 °F 66.0 °F 60% 29.96 in 10.0 mi South 13.8 mph - N/A   Mostly Cloudy
2:53 PM 79.0 °F - 66.9 °F 66% 29.96 in 10.0 mi SSW 9.2 mph - N/A   Overcast
3:27 PM 78.8 °F - 68.0 °F 69% 29.96 in 10.0 mi SSW 6.9 mph - N/A   Overcast
3:53 PM 77.0 °F - 69.1 °F 76% 29.96 in 10.0 mi SW 6.9 mph - 0.00 in Rain Light Rain
4:14 PM 77.0 °F - 69.8 °F 78% 29.96 in 10.0 mi Calm Calm - 0.00 in Rain Light Rain
4:53 PM 77.0 °F - 68.0 °F 74% 29.97 in 10.0 mi South 4.6 mph - 0.01 in   Overcast
5:22 PM 75.2 °F - 68.0 °F 78% 29.97 in 10.0 mi SE 9.2 mph - N/A   Overcast
5:36 PM 75.2 °F - 68.0 °F 78% 29.97 in 10.0 mi SE 6.9 mph - N/A   Overcast
5:53 PM 75.0 °F - 68.0 °F 79% 29.97 in 10.0 mi ESE 8.1 mph - N/A   Overcast
6:53 PM 75.0 °F - 66.0 °F 73% 29.98 in 10.0 mi SE 5.8 mph - N/A   Overcast
7:53 PM 75.0 °F - 69.1 °F 82% 29.99 in 10.0 mi SE 6.9 mph - N/A   Overcast
8:53 PM 75.9 °F - 68.0 °F 76% 30.00 in 10.0 mi SSW 5.8 mph - 0.00 in   Mostly Cloudy
9:53 PM 75.9 °F - 66.0 °F 71% 30.01 in 10.0 mi ESE 5.8 mph - N/A   Mostly Cloudy
10:53 PM 75.0 °F - 66.9 °F 76% 30.01 in 10.0 mi SE 4.6 mph - N/A   Overcast
11:53 PM 75.9 °F - 68.0 °F 76% 30.02 in 10.0 mi Calm Calm - N/A   Mostly Cloudy